Time,TemperatureF,DewpointF,PressureIn,WindDirection,WindDirectionDegrees,WindSpeedMPH,WindSpeedGustMPH,Humidity,HourlyPrecipIn,Conditions,Clouds,dailyrainin,SoftwareType,DateUTC
2013-09-10 00:02:00,69.4,64.4,29.92,South,179,0.0,0.0,84,0.00,,,0.00,Wunderground v.1.15,2013-09-10 04:02:00,
2013-09-10 00:04:00,69.4,64.4,29.92,South,179,0.0,0.0,84,0.00,,,0.00,Wunderground v.1.15,2013-09-10 04:04:00,
2013-09-10 00:06:00,69.4,64.4,29.92,South,179,0.0,0.0,84,0.00,,,0.00,Wunderground v.1.15,2013-09-10 04:06:00,
2013-09-10 00:10:00,69.3,64.3,29.92,South,179,0.0,0.0,84,0.00,,,0.00,Wunderground v.1.15,2013-09-10 04:10:00,
2013-09-10 00:14:00,69.3,64.3,29.92,South,179,0.0,0.0,84,0.00,,,0.00,Wunderground v.1.15,2013-09-10 04:14:00,
2013-09-10 00:20:00,69.2,64.2,29.92,South,179,0.0,0.0,84,0.00,,,0.00,Wunderground v.1.15,2013-09-10 04:20:00,
2013-09-10 00:26:00,69.2,64.2,29.92,South,179,0.0,0.0,84,0.00,,,0.00,Wunderground v.1.15,2013-09-10 04:26:00,
2013-09-10 00:32:00,69.1,64.1,29.93,South,179,0.0,0.0,84,0.00,,,0.00,Wunderground v.1.15,2013-09-10 04:32:00,
2013-09-10 00:38:00,69.0,64.0,29.92,South,179,0.0,0.0,84,0.00,,,0.00,Wunderground v.1.15,2013-09-10 04:38:00,
2013-09-10 00:44:00,68.9,63.9,29.92,South,179,0.0,0.0,84,0.00,,,0.00,Wunderground v.1.15,2013-09-10 04:44:00,
2013-09-10 00:50:00,68.8,63.8,29.93,South,179,0.0,0.0,84,0.00,,,0.00,Wunderground v.1.15,2013-09-10 04:50:00,
2013-09-10 00:56:00,68.7,63.7,29.93,South,179,0.0,0.0,84,0.00,,,0.00,Wunderground v.1.15,2013-09-10 04:56:00,
2013-09-10 01:02:00,68.6,63.6,29.93,South,179,0.0,0.0,84,0.00,,,0.00,Wunderground v.1.15,2013-09-10 05:02:00,
2013-09-10 01:08:00,68.6,63.2,29.93,South,179,0.0,0.0,83,0.00,,,0.00,Wunderground v.1.15,2013-09-10 05:08:00,
2013-09-10 01:14:00,68.6,63.2,29.93,South,179,0.0,0.0,83,0.00,,,0.00,Wunderground v.1.15,2013-09-10 05:14:00,
2013-09-10 08:08:00,64.1,58.8,29.99,South,179,0.0,0.0,83,0.00,,,0.00,Wunderground v.1.15,2013-09-10 12:08:00,
2013-09-10 08:14:00,64.2,58.9,29.99,South,179,0.0,0.0,83,0.00,,,0.00,Wunderground v.1.15,2013-09-10 12:14:00,
2013-09-10 08:20:00,64.4,58.8,29.99,South,179,0.0,0.0,82,0.00,,,0.00,Wunderground v.1.15,2013-09-10 12:20:00,
2013-09-10 08:26:00,64.6,59.0,29.99,South,179,0.0,0.0,82,0.00,,,0.00,Wunderground v.1.15,2013-09-10 12:26:00,
2013-09-10 08:32:00,64.8,59.2,29.99,South,179,0.0,0.0,82,0.00,,,0.00,Wunderground v.1.15,2013-09-10 12:32:00,
2013-09-10 08:38:00,65.2,59.6,29.99,South,179,0.0,0.0,82,0.00,,,0.00,Wunderground v.1.15,2013-09-10 12:38:00,
2013-09-10 08:44:00,65.5,59.9,29.99,South,179,0.0,0.0,82,0.00,,,0.00,Wunderground v.1.15,2013-09-10 12:44:00,
2013-09-10 08:50:00,65.7,60.1,30.00,South,179,0.0,0.0,82,0.00,,,0.00,Wunderground v.1.15,2013-09-10 12:50:00,
2013-09-10 08:56:00,66.2,60.5,30.00,South,179,0.0,0.0,82,0.00,,,0.00,Wunderground v.1.15,2013-09-10 12:56:00,
2013-09-10 09:02:00,67.1,61.4,30.00,South,179,0.0,0.0,82,0.00,,,0.00,Wunderground v.1.15,2013-09-10 13:02:00,
2013-09-10 09:08:00,68.1,62.4,30.00,WNW,285,0.0,0.0,82,0.00,,,0.00,Wunderground v.1.15,2013-09-10 13:08:00,
2013-09-10 09:14:00,68.8,63.4,30.00,WNW,285,0.0,0.0,83,0.00,,,0.00,Wunderground v.1.15,2013-09-10 13:14:00,
2013-09-10 09:20:00,69.5,64.1,30.00,WNW,285,0.0,0.0,83,0.00,,,0.00,Wunderground v.1.15,2013-09-10 13:20:00,
2013-09-10 09:26:00,70.0,64.6,30.00,WNW,285,0.0,2.0,83,0.00,,,0.00,Wunderground v.1.15,2013-09-10 13:26:00,
2013-09-10 09:32:00,71.0,65.6,30.00,NW,314,0.0,2.0,83,0.00,,,0.00,Wunderground v.1.15,2013-09-10 13:32:00,
2013-09-10 09:38:00,71.8,66.0,30.00,West,278,0.0,2.0,82,0.00,,,0.00,Wunderground v.1.15,2013-09-10 13:38:00,
2013-09-10 09:44:00,72.5,66.7,30.00,West,281,0.0,0.0,82,0.00,,,0.00,Wunderground v.1.15,2013-09-10 13:44:00,
2013-09-10 09:50:00,73.1,67.6,30.00,West,274,0.0,0.0,83,0.00,,,0.00,Wunderground v.1.15,2013-09-10 13:50:00,
2013-09-10 09:56:00,73.4,68.3,30.00,West,276,0.0,0.0,84,0.00,,,0.00,Wunderground v.1.15,2013-09-10 13:56:00,
2013-09-10 10:02:00,73.9,68.8,30.00,WNW,303,0.0,1.0,84,0.00,,,0.00,Wunderground v.1.15,2013-09-10 14:02:00,
2013-09-10 10:08:00,74.4,69.6,30.01,NW,316,0.0,1.0,85,0.00,,,0.00,Wunderground v.1.15,2013-09-10 14:08:00,
2013-09-10 10:14:00,74.8,70.0,30.01,NW,325,0.0,0.0,85,0.00,,,0.00,Wunderground v.1.15,2013-09-10 14:14:00,
2013-09-10 10:20:00,75.4,70.6,30.01,NNE,12,0.0,0.0,85,0.00,,,0.00,Wunderground v.1.15,2013-09-10 14:20:00,
2013-09-10 10:26:00,76.0,70.8,30.01,NNW,338,0.0,1.0,84,0.00,,,0.00,Wunderground v.1.15,2013-09-10 14:26:00,
2013-09-10 10:32:00,76.6,71.4,30.01,NW,314,0.0,0.0,84,0.00,,,0.00,Wunderground v.1.15,2013-09-10 14:32:00,
2013-09-10 10:38:00,77.0,71.4,30.00,NW,314,0.0,0.0,83,0.00,,,0.00,Wunderground v.1.15,2013-09-10 14:38:00,
2013-09-10 10:44:00,77.2,71.6,30.01,NW,314,0.0,0.0,83,0.00,,,0.00,Wunderground v.1.15,2013-09-10 14:44:00,
2013-09-10 10:50:00,77.3,70.6,30.00,West,269,0.0,0.0,80,0.00,,,0.00,Wunderground v.1.15,2013-09-10 14:50:00,
2013-09-10 10:56:00,77.9,71.6,30.01,West,269,0.0,0.0,81,0.00,,,0.00,Wunderground v.1.15,2013-09-10 14:56:00,
2013-09-10 11:02:00,78.0,71.0,30.00,WNW,290,0.0,0.0,79,0.00,,,0.00,Wunderground v.1.15,2013-09-10 15:02:00,
2013-09-10 11:08:00,78.3,70.9,30.00,NNW,338,0.0,1.0,78,0.00,,,0.00,Wunderground v.1.15,2013-09-10 15:08:00,
2013-09-10 11:14:00,79.0,70.8,30.00,NNW,328,0.0,0.0,76,0.00,,,0.00,Wunderground v.1.15,2013-09-10 15:14:00,
2013-09-10 11:20:00,79.6,72.1,30.00,WSW,252,0.0,0.0,78,0.00,,,0.00,Wunderground v.1.15,2013-09-10 15:20:00,
2013-09-10 11:26:00,80.0,71.8,30.00,West,280,0.0,1.0,76,0.00,,,0.00,Wunderground v.1.15,2013-09-10 15:26:00,
2013-09-10 11:32:00,80.7,72.0,30.00,West,270,0.0,0.0,75,0.00,,,0.00,Wunderground v.1.15,2013-09-10 15:32:00,
2013-09-10 11:38:00,81.1,71.6,30.00,West,270,0.0,0.0,73,0.00,,,0.00,Wunderground v.1.15,2013-09-10 15:38:00,
2013-09-10 11:44:00,81.3,69.7,30.00,West,276,0.0,0.0,68,0.00,,,0.00,Wunderground v.1.15,2013-09-10 15:44:00,
2013-09-10 11:50:00,81.8,69.8,30.00,WSW,245,0.0,0.0,67,0.00,,,0.00,Wunderground v.1.15,2013-09-10 15:50:00,
2013-09-10 11:56:00,82.4,70.8,30.00,SW,218,0.0,5.0,68,0.00,,,0.00,Wunderground v.1.15,2013-09-10 15:56:00,
2013-09-10 12:02:00,82.6,71.0,30.00,WSW,245,1.0,1.0,68,0.00,,,0.00,Wunderground v.1.15,2013-09-10 16:02:00,
2013-09-10 12:08:00,82.9,71.3,30.00,WSW,239,0.0,1.0,68,0.00,,,0.00,Wunderground v.1.15,2013-09-10 16:08:00,
2013-09-10 12:14:00,83.4,69.5,30.00,West,259,0.0,0.0,63,0.00,,,0.00,Wunderground v.1.15,2013-09-10 16:14:00,
2013-09-10 12:20:00,83.8,69.4,30.00,WNW,290,0.0,0.0,62,0.00,,,0.00,Wunderground v.1.15,2013-09-10 16:20:00,
2013-09-10 12:26:00,84.2,70.2,29.99,ENE,61,0.0,1.0,63,0.00,,,0.00,Wunderground v.1.15,2013-09-10 16:26:00,
2013-09-10 12:32:00,84.3,70.8,29.99,SW,228,1.0,1.0,64,0.00,,,0.00,Wunderground v.1.15,2013-09-10 16:32:00,
2013-09-10 12:38:00,84.6,71.5,29.99,SSW,205,0.0,1.0,65,0.00,,,0.00,Wunderground v.1.15,2013-09-10 16:38:00,
2013-09-10 12:44:00,84.7,70.7,29.99,SW,218,0.0,1.0,63,0.00,,,0.00,Wunderground v.1.15,2013-09-10 16:44:00,
2013-09-10 12:50:00,85.1,70.6,29.99,SE,129,0.0,0.0,62,0.00,,,0.00,Wunderground v.1.15,2013-09-10 16:50:00,
2013-09-10 12:56:00,85.1,71.1,29.99,SW,226,1.0,3.0,63,0.00,,,0.00,Wunderground v.1.15,2013-09-10 16:56:00,
2013-09-10 13:02:00,84.4,71.3,29.99,WSW,242,1.0,1.0,65,0.00,,,0.00,Wunderground v.1.15,2013-09-10 17:02:00,
2013-09-10 13:08:00,84.5,70.5,29.99,WSW,243,0.0,1.0,63,0.00,,,0.00,Wunderground v.1.15,2013-09-10 17:08:00,
2013-09-10 13:14:00,84.6,69.7,29.99,West,269,0.0,0.0,61,0.00,,,0.00,Wunderground v.1.15,2013-09-10 17:14:00,
2013-09-10 13:20:00,85.2,69.7,29.99,West,269,1.0,1.0,60,0.00,,,0.00,Wunderground v.1.15,2013-09-10 17:20:00,
2013-09-10 13:26:00,85.0,70.0,29.98,West,269,0.0,1.0,61,0.00,,,0.00,Wunderground v.1.15,2013-09-10 17:26:00,
2013-09-10 13:32:00,84.9,70.4,29.98,WNW,284,0.0,0.0,62,0.00,,,0.00,Wunderground v.1.15,2013-09-10 17:32:00,
2013-09-10 13:38:00,85.6,70.1,29.98,WSW,248,0.0,1.0,60,0.00,,,0.00,Wunderground v.1.15,2013-09-10 17:38:00,
2013-09-10 13:44:00,86.0,70.0,29.98,West,269,1.0,1.0,59,0.00,,,0.00,Wunderground v.1.15,2013-09-10 17:44:00,
2013-09-10 13:50:00,86.4,70.9,29.98,West,270,0.0,1.0,60,0.00,,,0.00,Wunderground v.1.15,2013-09-10 17:50:00,
2013-09-10 13:56:00,86.3,69.8,29.97,SSE,148,1.0,1.0,58,0.00,,,0.00,Wunderground v.1.15,2013-09-10 17:56:00,
2013-09-10 14:02:00,86.2,69.2,29.97,ENE,65,0.0,1.0,57,0.00,,,0.00,Wunderground v.1.15,2013-09-10 18:02:00,
2013-09-10 14:08:00,86.2,69.7,29.97,ENE,67,0.0,1.0,58,0.00,,,0.00,Wunderground v.1.15,2013-09-10 18:08:00,
2013-09-10 14:14:00,86.5,71.0,29.97,ENE,70,0.0,0.0,60,0.00,,,0.00,Wunderground v.1.15,2013-09-10 18:14:00,
2013-09-10 14:20:00,87.0,69.9,29.96,ENE,70,0.0,0.0,57,0.00,,,0.00,Wunderground v.1.15,2013-09-10 18:20:00,
2013-09-10 14:26:00,87.5,71.9,29.96,SW,226,1.0,2.0,60,0.00,,,0.00,Wunderground v.1.15,2013-09-10 18:26:00,
2013-09-10 14:32:00,86.3,70.8,29.96,SW,225,1.0,1.0,60,0.00,,,0.00,Wunderground v.1.15,2013-09-10 18:32:00,
2013-09-10 14:38:00,86.0,71.9,29.96,WSW,243,1.0,1.0,63,0.00,,,0.00,Wunderground v.1.15,2013-09-10 18:38:00,
2013-09-10 14:44:00,85.1,70.1,29.96,WSW,242,1.0,1.0,61,0.00,,,0.00,Wunderground v.1.15,2013-09-10 18:44:00,
2013-09-10 14:50:00,85.7,71.2,29.95,WSW,243,0.0,1.0,62,0.00,,,0.00,Wunderground v.1.15,2013-09-10 18:50:00,
2013-09-10 14:56:00,85.0,73.3,29.95,WSW,242,0.0,1.0,68,0.00,,,0.00,Wunderground v.1.15,2013-09-10 18:56:00,
2013-09-10 15:02:00,84.1,72.0,29.95,WSW,242,0.0,0.0,67,0.00,,,0.00,Wunderground v.1.15,2013-09-10 19:02:00,
2013-09-10 15:08:00,84.0,71.9,29.95,WSW,243,0.0,0.0,67,0.00,,,0.00,Wunderground v.1.15,2013-09-10 19:08:00,
2013-09-10 15:14:00,85.4,71.8,29.95,SW,229,1.0,2.0,64,0.00,,,0.00,Wunderground v.1.15,2013-09-10 19:14:00,
2013-09-10 15:20:00,85.4,73.2,29.94,SW,229,1.0,1.0,67,0.00,,,0.00,Wunderground v.1.15,2013-09-10 19:20:00,
2013-09-10 15:26:00,84.9,73.6,29.94,SW,227,0.0,1.0,69,0.00,,,0.00,Wunderground v.1.15,2013-09-10 19:26:00,
2013-09-10 15:32:00,84.5,70.0,29.94,ESE,114,0.0,1.0,62,0.00,,,0.00,Wunderground v.1.15,2013-09-10 19:32:00,
2013-09-10 15:38:00,85.3,72.6,29.94,WSW,243,1.0,2.0,66,0.00,,,0.00,Wunderground v.1.15,2013-09-10 19:38:00,
2013-09-10 15:44:00,86.6,70.6,29.94,WSW,240,1.0,2.0,59,0.00,,,0.00,Wunderground v.1.15,2013-09-10 19:44:00,
2013-09-10 15:50:00,87.0,72.4,29.94,WSW,238,1.0,2.0,62,0.00,,,0.00,Wunderground v.1.15,2013-09-10 19:50:00,
2013-09-10 15:56:00,87.1,71.5,29.93,West,267,0.0,2.0,60,0.00,,,0.00,Wunderground v.1.15,2013-09-10 19:56:00,
2013-09-10 16:02:00,86.5,73.3,29.93,West,267,0.0,0.0,65,0.00,,,0.00,Wunderground v.1.15,2013-09-10 20:02:00,
2013-09-10 16:08:00,85.7,72.6,29.93,West,263,0.0,1.0,65,0.00,,,0.00,Wunderground v.1.15,2013-09-10 20:08:00,
2013-09-10 16:14:00,85.2,72.1,29.93,West,263,0.0,0.0,65,0.00,,,0.00,Wunderground v.1.15,2013-09-10 20:14:00,
2013-09-10 16:20:00,84.7,71.6,29.93,West,263,0.0,0.0,65,0.00,,,0.00,Wunderground v.1.15,2013-09-10 20:20:00,
2013-09-10 16:26:00,84.4,71.8,29.92,West,263,0.0,0.0,66,0.00,,,0.00,Wunderground v.1.15,2013-09-10 20:26:00,
2013-09-10 16:32:00,84.6,72.0,29.92,West,263,0.0,0.0,66,0.00,,,0.00,Wunderground v.1.15,2013-09-10 20:32:00,
2013-09-10 16:38:00,85.6,69.6,29.92,East,87,0.0,1.0,59,0.00,,,0.00,Wunderground v.1.15,2013-09-10 20:38:00,
2013-09-10 16:44:00,86.5,70.0,29.92,ESE,116,1.0,2.0,58,0.00,,,0.00,Wunderground v.1.15,2013-09-10 20:44:00,
2013-09-10 16:50:00,86.3,71.7,29.92,ESE,119,0.0,1.0,62,0.00,,,0.00,Wunderground v.1.15,2013-09-10 20:50:00,
2013-09-10 16:56:00,86.5,71.5,29.92,South,179,0.0,1.0,61,0.00,,,0.00,Wunderground v.1.15,2013-09-10 20:56:00,
2013-09-10 17:02:00,87.1,72.0,29.92,South,179,0.0,0.0,61,0.00,,,0.00,Wunderground v.1.15,2013-09-10 21:02:00,
2013-09-10 17:08:00,87.2,72.1,29.92,SE,143,0.0,1.0,61,0.00,,,0.00,Wunderground v.1.15,2013-09-10 21:08:00,
2013-09-10 17:14:00,87.4,72.8,29.92,SE,143,0.0,0.0,62,0.00,,,0.00,Wunderground v.1.15,2013-09-10 21:14:00,
2013-09-10 17:20:00,87.2,71.1,29.92,ESE,113,0.0,0.0,59,0.00,,,0.00,Wunderground v.1.15,2013-09-10 21:20:00,
2013-09-10 17:26:00,87.1,73.4,29.92,SE,139,0.0,0.0,64,0.00,,,0.00,Wunderground v.1.15,2013-09-10 21:26:00,
2013-09-10 17:32:00,86.5,72.9,29.92,South,180,0.0,1.0,64,0.00,,,0.00,Wunderground v.1.15,2013-09-10 21:32:00,
2013-09-10 17:38:00,86.1,72.0,29.92,South,180,0.0,1.0,63,0.00,,,0.00,Wunderground v.1.15,2013-09-10 21:38:00,
2013-09-10 17:44:00,85.4,72.7,29.91,South,177,0.0,0.0,66,0.00,,,0.00,Wunderground v.1.15,2013-09-10 21:44:00,
2013-09-10 17:50:00,84.5,72.8,29.91,South,170,0.0,0.0,68,0.00,,,0.00,Wunderground v.1.15,2013-09-10 21:50:00,
2013-09-10 17:56:00,83.9,73.1,29.91,South,170,0.0,0.0,70,0.00,,,0.00,Wunderground v.1.15,2013-09-10 21:56:00,
2013-09-10 18:02:00,84.2,73.3,29.92,South,170,0.0,0.0,70,0.00,,,0.00,Wunderground v.1.15,2013-09-10 22:02:00,
2013-09-10 18:08:00,84.3,72.6,29.92,South,170,0.0,0.0,68,0.00,,,0.00,Wunderground v.1.15,2013-09-10 22:08:00,
2013-09-10 18:14:00,83.4,69.9,29.92,South,170,0.0,0.0,64,0.00,,,0.00,Wunderground v.1.15,2013-09-10 22:14:00,
2013-09-10 18:20:00,82.7,71.1,29.92,South,170,0.0,0.0,68,0.00,,,0.00,Wunderground v.1.15,2013-09-10 22:20:00,
2013-09-10 18:26:00,82.1,71.3,29.92,South,170,0.0,0.0,70,0.00,,,0.00,Wunderground v.1.15,2013-09-10 22:26:00,
2013-09-10 18:32:00,81.6,70.0,29.92,South,176,0.0,0.0,68,0.00,,,0.00,Wunderground v.1.15,2013-09-10 22:32:00,
2013-09-10 18:38:00,81.1,70.8,29.92,South,176,0.0,0.0,71,0.00,,,0.00,Wunderground v.1.15,2013-09-10 22:38:00,
2013-09-10 18:44:00,80.5,70.6,29.92,South,176,0.0,0.0,72,0.00,,,0.00,Wunderground v.1.15,2013-09-10 22:44:00,
2013-09-10 18:50:00,80.1,70.3,29.92,South,176,0.0,0.0,72,0.00,,,0.00,Wunderground v.1.15,2013-09-10 22:50:00,
2013-09-10 18:56:00,79.7,69.9,29.92,South,176,0.0,0.0,72,0.00,,,0.00,Wunderground v.1.15,2013-09-10 22:56:00,
2013-09-10 19:02:00,79.3,69.9,29.92,South,176,0.0,0.0,73,0.00,,,0.00,Wunderground v.1.15,2013-09-10 23:02:00,
2013-09-10 19:08:00,79.1,70.5,29.92,South,176,0.0,0.0,75,0.00,,,0.00,Wunderground v.1.15,2013-09-10 23:08:00,
2013-09-10 19:14:00,78.8,70.2,29.92,South,176,0.0,0.0,75,0.00,,,0.00,Wunderground v.1.15,2013-09-10 23:14:00,
2013-09-10 19:20:00,78.5,70.3,29.92,South,176,0.0,0.0,76,0.00,,,0.00,Wunderground v.1.15,2013-09-10 23:20:00,
2013-09-10 19:26:00,78.1,70.3,29.92,South,176,0.0,0.0,77,0.00,,,0.00,Wunderground v.1.15,2013-09-10 23:26:00,
2013-09-10 19:32:00,77.8,70.8,29.92,South,176,0.0,0.0,79,0.00,,,0.00,Wunderground v.1.15,2013-09-10 23:32:00,
2013-09-10 19:38:00,77.4,70.4,29.92,South,176,0.0,0.0,79,0.00,,,0.00,Wunderground v.1.15,2013-09-10 23:38:00,
2013-09-10 19:44:00,76.9,70.3,29.92,South,176,0.0,0.0,80,0.00,,,0.00,Wunderground v.1.15,2013-09-10 23:44:00,
2013-09-10 19:50:00,76.5,70.2,29.92,South,176,0.0,0.0,81,0.00,,,0.00,Wunderground v.1.15,2013-09-10 23:50:00,
2013-09-10 19:56:00,76.1,70.2,29.92,South,179,0.0,0.0,82,0.00,,,0.00,Wunderground v.1.15,2013-09-10 23:56:00,
2013-09-10 20:02:00,75.8,69.9,29.92,South,179,0.0,0.0,82,0.00,,,0.00,Wunderground v.1.15,2013-09-11 00:02:00,
2013-09-10 20:08:00,75.5,70.0,29.93,South,179,0.0,0.0,83,0.00,,,0.00,Wunderground v.1.15,2013-09-11 00:08:00,
2013-09-10 20:14:00,75.2,69.7,29.93,South,179,0.0,0.0,83,0.00,,,0.00,Wunderground v.1.15,2013-09-11 00:14:00,
2013-09-10 20:20:00,74.9,69.7,29.93,South,179,0.0,0.0,84,0.00,,,0.00,Wunderground v.1.15,2013-09-11 00:20:00,
2013-09-10 20:26:00,74.7,69.5,29.93,South,179,0.0,0.0,84,0.00,,,0.00,Wunderground v.1.15,2013-09-11 00:26:00,
2013-09-10 20:32:00,74.4,69.2,29.93,South,179,0.0,0.0,84,0.00,,,0.00,Wunderground v.1.15,2013-09-11 00:32:00,
2013-09-10 20:38:00,74.2,69.1,29.94,South,179,0.0,0.0,84,0.00,,,0.00,Wunderground v.1.15,2013-09-11 00:38:00,
2013-09-10 20:44:00,74.1,69.3,29.94,South,179,0.0,0.0,85,0.00,,,0.00,Wunderground v.1.15,2013-09-11 00:44:00,
2013-09-10 20:50:00,74.0,69.2,29.94,South,179,0.0,0.0,85,0.00,,,0.00,Wunderground v.1.15,2013-09-11 00:50:00,
2013-09-10 20:56:00,73.7,68.9,29.95,South,179,0.0,0.0,85,0.00,,,0.00,Wunderground v.1.15,2013-09-11 00:56:00,
2013-09-10 21:02:00,73.6,68.8,29.95,South,179,0.0,0.0,85,0.00,,,0.00,Wunderground v.1.15,2013-09-11 01:02:00,
2013-09-10 21:08:00,73.6,68.8,29.96,South,179,0.0,0.0,85,0.00,,,0.00,Wunderground v.1.15,2013-09-11 01:08:00,
2013-09-10 21:14:00,73.3,68.5,29.96,South,179,0.0,0.0,85,0.00,,,0.00,Wunderground v.1.15,2013-09-11 01:14:00,
2013-09-10 21:20:00,73.0,68.6,29.96,South,179,0.0,0.0,86,0.00,,,0.00,Wunderground v.1.15,2013-09-11 01:20:00,
2013-09-10 21:26:00,72.7,68.3,29.96,South,181,0.0,0.0,86,0.00,,,0.00,Wunderground v.1.15,2013-09-11 01:26:00,
2013-09-10 21:32:00,72.5,68.1,29.96,South,182,0.0,0.0,86,0.00,,,0.00,Wunderground v.1.15,2013-09-11 01:32:00,
2013-09-10 21:38:00,72.4,68.0,29.97,South,181,0.0,0.0,86,0.00,,,0.00,Wunderground v.1.15,2013-09-11 01:38:00,
2013-09-10 21:44:00,72.2,67.8,29.97,South,182,0.0,0.0,86,0.00,,,0.00,Wunderground v.1.15,2013-09-11 01:44:00,
2013-09-10 21:50:00,72.0,67.6,29.97,South,181,0.0,0.0,86,0.00,,,0.00,Wunderground v.1.15,2013-09-11 01:50:00,
2013-09-10 21:56:00,71.8,67.4,29.98,South,179,0.0,0.0,86,0.00,,,0.00,Wunderground v.1.15,2013-09-11 01:56:00,
2013-09-10 22:02:00,71.9,67.5,29.98,South,179,0.0,0.0,86,0.00,,,0.00,Wunderground v.1.15,2013-09-11 02:02:00,
2013-09-10 22:08:00,71.7,67.3,29.98,South,179,0.0,0.0,86,0.00,,,0.00,Wunderground v.1.15,2013-09-11 02:08:00,
2013-09-10 22:14:00,71.4,67.0,29.98,South,179,0.0,0.0,86,0.00,,,0.00,Wunderground v.1.15,2013-09-11 02:14:00,
2013-09-10 22:20:00,71.2,67.1,29.98,South,179,0.0,0.0,87,0.00,,,0.00,Wunderground v.1.15,2013-09-11 02:20:00,
2013-09-10 22:26:00,70.9,66.8,29.98,South,179,0.0,0.0,87,0.00,,,0.00,Wunderground v.1.15,2013-09-11 02:26:00,
2013-09-10 22:32:00,70.9,66.8,29.98,South,179,0.0,0.0,87,0.00,,,0.00,Wunderground v.1.15,2013-09-11 02:32:00,
2013-09-10 22:38:00,70.7,66.6,29.98,South,179,0.0,0.0,87,0.00,,,0.00,Wunderground v.1.15,2013-09-11 02:38:00,
2013-09-10 22:44:00,70.5,66.4,29.98,South,179,0.0,0.0,87,0.00,,,0.00,Wunderground v.1.15,2013-09-11 02:44:00,
2013-09-10 22:50:00,70.2,66.1,29.98,South,179,0.0,0.0,87,0.00,,,0.00,Wunderground v.1.15,2013-09-11 02:50:00,
2013-09-10 22:56:00,70.1,65.7,29.99,South,179,0.0,0.0,86,0.00,,,0.00,Wunderground v.1.15,2013-09-11 02:56:00,
2013-09-10 23:02:00,70.2,65.8,29.99,South,179,0.0,0.0,86,0.00,,,0.00,Wunderground v.1.15,2013-09-11 03:02:00,
2013-09-10 23:08:00,70.1,65.7,29.98,South,179,0.0,0.0,86,0.00,,,0.00,Wunderground v.1.15,2013-09-11 03:08:00,
2013-09-10 23:14:00,69.9,65.5,29.98,South,179,0.0,0.0,86,0.00,,,0.00,Wunderground v.1.15,2013-09-11 03:14:00,
2013-09-10 23:20:00,69.9,65.5,29.99,South,179,0.0,0.0,86,0.00,,,0.00,Wunderground v.1.15,2013-09-11 03:20:00,
2013-09-10 23:26:00,69.7,65.3,29.98,South,179,0.0,0.0,86,0.00,,,0.00,Wunderground v.1.15,2013-09-11 03:26:00,
2013-09-10 23:32:00,69.6,65.2,29.99,South,179,0.0,0.0,86,0.00,,,0.00,Wunderground v.1.15,2013-09-11 03:32:00,
2013-09-10 23:38:00,69.6,65.2,29.99,SSW,207,0.0,0.0,86,0.00,,,0.00,Wunderground v.1.15,2013-09-11 03:38:00,
2013-09-10 23:44:00,69.6,65.2,29.99,SSW,207,0.0,0.0,86,0.00,,,0.00,Wunderground v.1.15,2013-09-11 03:44:00,
2013-09-10 23:50:00,69.4,65.0,29.98,SSW,207,0.0,0.0,86,0.00,,,0.00,Wunderground v.1.15,2013-09-11 03:50:00,
2013-09-10 23:56:00,69.4,65.0,29.98,SSW,207,0.0,0.0,86,0.00,,,0.00,Wunderground v.1.15,2013-09-11 03:56:00,